Dewpoint
49 49 47 47 46 46 48 47 47 46 46 47 48 49 49 48 50 53 54 55 54 54 54 54 51 52 37 29 32 36 44 41 36 32 29 27 28 24 22 22 23 25 23 20 18 18 20
50 47 48 46 47 48 49 48 46 46 46 47 49 50 51 50 52 53 54 54 52 52 53 53 53 48 32 25 35 40 38 33 32 30 29 26 24 23 21 20 21 22 19 17 18 19 23
50 48 46 47 49 49 50 47 46 46 47 50 51 52 51 53 54 54 54 54 54 53 53 53 54 46 34 33 39 41 33 30 31 29 25 27 26 21 21 19 21 16 11 15 19 19 21
50 48 47 48 49 47 48 46 45 47 49 50 50 52 52 52 52 54 54 52 53 53 54 53 52 40 31 37 42 38 34 29 32 31 26 25 25 22 19 19 14 9 8 2 18 21 23
51 50 49 48 48 48 48 48 47 49 50 50 50 52 51 51 51 52 52 52 51 50 52 51 46 35 28 36 35 39 36 28 28 30 31 27 27 23 19 11 7 8 0 2 13 30 25
50 50 50 49 49 47 46 48 49 50 50 50 50 50 50 50 49 48 50 49 47 46 47 49 44 29 33 33 37 38 39 31 24 22 20 21 22 18 22 11 1 -1 2 10 8 23 28
50 50 50 50 49 49 48 49 50 50 50 50 50 51 50 50 49 48 45 43 38 37 41 38 35 34 35 38 38 35 37 28 26 25 14 23 15 15 23 22 15 11 10 9 18 29 27
49 49 49 50 49 49 49 49 49 49 49 49 49 50 49 48 49 48 45 40 42 42 32 38 37 36 38 37 29 32 33 21 23 17 19 18 20 25 27 22 18 15 10 11 17 27 28
48 49 49 49 49 49 50 50 49 48 48 48 50 49 49 48 46 45 44 44 48 47 30 33 36 34 34 33 30 31 33 28 22 21 19 16 23 26 24 21 15 22 12 18 19 29 28
47 47 48 48 48 49 50 50 51 50 48 48 50 49 48 46 40 45 41 46 47 45 25 27 30 32 33 32 27 34 34 29 25 20 23 24 27 23 22 24 21 7 29 29 29 24 6
47 47 47 47 48 48 49 50 51 51 50 47 47 47 47 45 42 39 43 45 44 35 19 27 30 35 33 27 27 29 35 29 26 26 17 21 26 24 19 26 29 23 30 31 30 27 24
47 47 47 48 47 47 49 49 50 51 51 49 48 47 43 41 43 45 45 43 34 21 19 25 30 29 26 30 31 30 30 30 30 23 27 27 30 30 29 31 31 32 31 25 25 25 9
48 48 48 47 47 48 48 48 49 49 51 50 48 47 42 42 38 45 41 34 22 20 26 25 26 29 29 28 28 28 26 26 15 10 11 21 24 30 32 30 33 29 18 -1 -3 1 1
48 49 49 48 47 48 48 47 48 49 50 50 49 44 42 42 45 42 33 25 20 25 26 28 28 27 26 28 29 29 25 24 29 20 18 7 6 26 30 31 28 30 21 4 -11 -10 0
48 50 49 48 48 48 48 47 47 48 49 50 44 40 41 43 45 38 29 22 21 25 27 27 25 22 25 28 28 26 26 25 28 28 12 8 15 30 31 32 31 28 24 22 16 17 14
50 50 50 49 49 48 48 48 48 48 50 49 38 39 40 44 42 34 28 26 27 27 29 27 19 23 21 26 25 24 25 28 27 31 29 21 16 29 31 32 33 31 28 20 20 -5 -13
51 50 50 49 49 49 48 48 49 49 48 45 36 34 40 44 37 30 24 27 30 32 31 27 24 24 25 26 26 27 24 28 29 30 30 29 21 26 31 28 26 30 28 27 22 15 4
51 50 51 50 50 49 48 48 49 48 47 42 37 28 42 40 25 29 26 28 30 31 33 31 29 27 26 27 26 26 24 27 31 30 28 30 25 20 25 29 30 30 28 25 15 9 21
52 51 51 51 51 50 49 48 48 50 44 39 34 35 41 35 15 26 31 31 31 31 31 30 29 29 28 27 23 26 27 31 31 30 28 29 20 3 5 20 30 28 29 28 21 20 17
53 52 52 51 51 50 49 48 48 50 47 36 28 21 31 32 31 28 27 29 29 33 31 31 30 29 28 27 28 25 27 31 32 31 34 30 24 13 -7 -2 21 23 28 29 26 22 19
53 52 52 51 50 50 49 48 47 50 45 35 30 29 32 24 29 29 28 28 27 27 32 31 29 28 26 24 26 25 27 31 32 36 33 30 21 24 23 23 22 21 21 27 27 25 19
50 52 52 52 51 49 49 49 46 48 43 34 28 27 30 29 29 27 27 28 25 29 28 26 26 28 29 24 22 23 26 29 27 34 32 32 23 27 24 25 26 24 26 25 24 26 27
50 50 51 51 51 50 49 49 46 43 37 33 35 35 28 28 26 20 23 28 27 29 29 29 28 28 28 28 29 28 27 28 27 30 31 30 28 24 15 22 21 12 15 22 25 26 24
50 49 49 51 51 50 49 49 48 42 38 36 37 32 20 21 24 21 27 28 28 29 27 30 31 29 28 33 31 28 28 29 29 31 31 29 28 26 21 20 3 7 19 21 21 23 26
49 48 47 49 50 50 50 49 48 43 39 36 37 33 26 24 23 22 24 24 26 27 28 29 30 31 33 29 24 17 12 21 26 28 29 30 28 22 17 17 14 11 19 19 18 14 21
49 48 47 48 49 49 50 49 48 47 41 37 36 37 30 30 28 23 23 24 22 20 21 27 34 34 31 27 23 13 8 9 17 25 28 29 28 23 21 15 6 6 18 22 19 13 16
50 49 48 46 47 48 50 50 49 47 42 38 38 37 33 33 32 27 25 24 25 25 21 26 32 32 30 26 20 16 14 18 12 15 25 27 27 25 23 21 20 23 22 23 14 14 20
52 50 50 50 50 49 48 50 50 48 45 40 39 39 38 36 35 32 30 28 29 27 24 25 29 30 29 25 22 20 20 19 18 17 23 22 23 24 23 22 17 25 24 17 21 24 24
52 52 51 51 51 49 48 49 50 48 47 42 40 39 37 37 36 34 34 35 33 31 27 30 25 27 29 24 25 25 24 24 21 16 23 17 22 22 24 22 24 25 25 25 26 25 25
Wind_Speed
21 21 20 20 20 18 18 17 17 19 22 24 24 23 20 17 10 8 14 24 24 26 24 18 15 14 2 9 4 7 17 13 1 6 5 4 5 5 7 7 4 8 5 6 4 7 6
21 23 19 19 18 18 19 18 17 18 20 21 20 18 15 15 13 16 19 25 26 22 23 16 13 12 3 14 6 10 11 5 5 6 6 6 4 7 9 5 4 4 10 7 7 5 5
22 22 20 20 21 21 18 19 17 19 19 20 24 24 19 22 23 23 25 27 24 19 20 17 14 8 19 7 6 10 6 5 4 6 9 4 4 5 5 9 6 5 8 4 10 5 4
22 22 20 21 22 23 20 18 17 18 22 22 23 25 27 26 25 25 27 26 26 20 16 13 12 5 7 2 4 11 8 6 9 10 13 7 12 12 5 7 5 5 4 4 4 8 3
21 21 20 20 21 20 19 18 18 17 19 21 21 21 22 22 24 22 24 23 22 18 12 5 6 1 4 7 6 9 6 5 4 7 11 8 7 6 4 7 6 7 4 2 0 5 4
20 20 20 19 19 18 18 17 16 18 18 18 19 19 17 18 17 15 17 13 17 11 11 4 2 5 7 3 5 6 4 6 8 4 5 9 7 7 7 4 6 5 4 1 2 5 5
19 19 19 19 17 16 16 17 16 15 16 18 19 16 16 14 17 14 7 3 6 9 15 12 4 5 2 6 3 9 5 4 5 11 6 7 13 12 6 4 5 7 5 2 1 3 7
17 17 17 17 16 15 14 15 15 14 16 15 16 11 15 17 20 15 7 7 2 2 17 10 6 4 1 2 10 17 6 5 6 8 2 8 10 1 4 7 8 6 4 1 4 1 5
16 16 16 16 15 14 14 13 13 15 15 15 14 13 13 11 8 10 11 6 3 3 8 8 6 5 5 7 6 11 6 4 9 12 9 9 4 2 3 5 5 5 3 1 2 10 2
15 14 14 15 14 13 13 13 12 12 13 13 14 16 18 3 2 1 5 0 2 2 8 13 12 7 5 1 7 3 4 4 7 9 8 10 3 4 5 4 2 2 2 3 4 7 5
15 15 14 13 13 12 12 11 11 11 11 10 11 13 11 12 2 4 5 7 4 1 8 8 6 5 6 7 3 11 6 10 8 6 2 2 3 4 5 2 1 3 2 3 3 3 4
15 15 14 13 12 11 12 11 10 8 10 10 8 10 6 6 4 2 8 7 3 4 6 4 5 5 3 8 4 4 6 10 4 8 14 5 1 3 2 3 3 4 2 5 4 2 3
16 16 16 15 13 12 11 11 10 9 5 5 7 9 5 2 1 2 2 2 4 8 2 1 3 4 6 7 6 6 5 7 4 5 3 3 2 2 2 3 2 1 2 4 3 2 4
15 17 16 15 16 15 12 11 10 8 7 3 1 1 3 3 4 5 3 4 12 2 2 1 1 6 5 6 5 5 4 4 6 5 5 5 2 1 0 1 1 3 2 2 4 4 7
15 17 18 17 17 16 15 11 9 10 6 4 1 2 3 4 3 3 5 11 4 5 3 5 3 5 3 3 3 4 4 2 1 2 3 4 1 2 0 1 1 1 3 4 5 1 4
14 16 17 19 19 18 16 14 10 8 7 1 2 3 2 5 4 3 6 7 4 4 2 1 3 2 3 2 3 3 1 1 3 1 2 5 3 1 0 2 6 1 9 2 2 3 6
12 14 16 18 20 20 18 15 11 7 3 6 3 2 2 4 3 6 8 5 4 3 3 2 3 4 4 3 3 2 3 2 3 4 4 5 2 1 0 6 8 4 3 3 3 3 3
12 14 16 18 19 20 21 18 12 1 8 4 3 3 8 6 3 5 5 6 4 2 1 2 3 4 4 3 3 2 4 3 6 6 4 1 3 4 2 1 2 2 5 7 4 4 3
12 14 16 18 19 20 21 21 13 4 8 4 3 1 4 4 6 6 2 3 3 2 1 2 2 1 2 5 3 3 3 1 6 4 4 5 1 1 2 1 1 5 6 5 5 3 10
10 12 15 17 19 22 23 23 17 4 9 3 3 3 5 7 3 7 6 3 3 2 2 1 2 2 3 2 2 4 2 1 2 1 4 4 2 5 6 1 4 5 8 13 11 8 8
9 12 13 15 18 20 23 23 18 6 6 2 5 3 2 3 6 5 2 4 5 4 1 1 1 2 3 4 4 4 3 3 1 3 3 3 4 4 10 14 11 17 16 14 22 20 16
7 9 12 15 17 19 22 23 19 2 2 6 3 3 3 3 1 2 3 2 4 2 5 4 4 6 5 4 5 6 8 6 5 4 6 2 3 2 10 8 5 12 18 22 25 24 26
3 5 8 11 14 17 20 23 23 16 2 5 1 1 1 2 2 2 1 1 2 0 1 2 3 4 6 8 7 3 5 4 6 8 10 5 4 3 7 4 14 13 10 16 8 9 17
2 2 5 8 10 13 16 19 22 21 11 5 2 3 3 1 0 2 2 1 0 1 1 1 2 1 3 3 4 4 5 3 4 4 5 8 5 1 8 11 4 1 4 8 14 12 23
4 1 2 5 8 10 12 15 17 14 15 8 2 2 3 2 1 2 2 1 0 1 1 2 1 2 1 4 3 3 2 0 1 3 7 4 7 3 4 5 13 0 4 7 5 4 6
7 4 1 3 6 8 9 11 13 16 6 6 5 2 3 3 3 2 2 2 2 1 2 1 2 1 4 3 1 3 4 3 3 1 8 4 1 7 4 4 5 1 2 4 3 1 3
10 8 5 2 3 5 7 8 10 13 11 5 5 3 3 1 3 5 4 3 5 3 2 1 2 2 1 3 3 5 3 2 3 5 6 6 4 15 9 5 13 11 6 5 2 2 11
13 11 8 4 1 1 3 5 6 9 10 3 2 5 3 1 4 6 4 4 2 3 4 6 3 1 3 4 4 4 4 3 3 4 6 11 12 8 7 8 9 5 6 1 3 9 13
14 13 9 6 4 3 2 3 4 5 7 2 2 2 2 3 4 2 3 2 0 1 4 4 2 4 7 4 3 1 4 3 5 5 3 7 9 8 17 11 4 3 2 2 4 15 14
Wind_Direction
29 31 30 28 25 19 16 17 25 24 25 27 23 29 49 67 50 68 98 116 108 109 106 88 48 8 16 65 49 307 326 330 349 114 88 108 108 114 113 110 94 92 118 73 78 68 60
30 31 28 33 24 16 17 29 29 34 26 29 29 27 37 53 57 78 107 118 109 109 106 83 28 356 64 86 301 317 327 352 74 98 84 57 121 118 96 77 71 111 108 107 57 49 47
31 32 31 30 25 20 35 44 37 34 31 39 49 41 57 67 66 86 102 102 105 116 106 61 8 6 59 75 326 332 14 14 359 123 96 57 111 90 123 101 138 122 99 94 34 11 30
31 32 32 35 33 41 51 53 42 36 48 46 51 49 64 64 70 80 90 103 99 86 73 53 340 1 80 315 297 18 2 43 34 62 93 98 87 86 59 126 51 77 70 144 3 12 337
28 30 36 32 36 39 47 46 41 40 43 47 46 55 62 62 57 73 88 96 100 99 83 21 6 52 71 335 29 333 20 58 26 65 64 77 69 79 53 99 83 33 161 161 256 31 317
26 27 36 39 37 38 42 46 49 44 36 38 39 43 50 45 41 51 82 95 91 84 78 314 249 89 12 24 323 332 350 43 66 63 58 46 56 84 42 64 169 162 120 132 241 333 341
21 25 31 34 44 36 40 36 41 40 41 34 36 47 51 53 42 57 93 2 44 48 47 94 313 83 352 309 334 16 1 33 41 54 77 31 91 99 85 66 104 114 106 122 291 340 326
22 25 23 31 33 40 37 30 20 36 43 40 29 25 41 48 58 41 65 72 31 115 73 46 52 48 328 332 59 11 21 79 63 89 34 70 89 79 76 76 89 83 105 351 275 342 336
25 23 23 23 24 30 27 30 25 25 31 28 27 30 19 28 58 41 63 51 351 329 101 33 52 24 358 34 52 1 26 82 80 65 61 98 110 47 100 67 96 55 100 44 322 328 46
19 23 19 20 20 16 21 22 21 18 27 24 37 28 11 358 20 310 81 200 307 344 85 10 354 22 354 2 57 354 17 94 53 99 78 76 22 101 94 80 37 126 122 79 17 1 291
15 14 15 16 13 8 5 13 14 11 5 26 29 22 28 41 17 37 324 355 352 43 76 335 330 306 354 84 141 18 20 44 89 89 141 93 87 85 80 72 12 136 104 76 71 38 327
16 15 11 10 9 2 356 354 356 11 360 353 10 18 52 33 38 359 344 342 9 58 77 340 316 355 51 28 42 343 54 58 128 70 54 93 57 51 90 76 70 136 97 54 64 61 265
13 14 10 5 3 358 352 346 341 337 353 357 344 354 37 140 309 169 244 60 84 71 309 61 30 27 76 30 44 38 43 48 74 115 63 36 33 26 83 91 36 83 34 317 317 345 259
9 8 9 6 359 353 352 342 329 323 322 316 71 26 5 4 345 7 62 80 69 218 231 218 114 58 70 19 39 32 76 74 41 68 112 155 197 92 301 94 142 60 85 132 279 289 295
8 5 3 4 2 357 351 347 335 319 311 291 135 69 93 1 342 22 77 57 114 182 166 156 115 87 62 38 105 70 54 98 106 90 107 144 117 323 141 38 17 141 68 135 101 91 291
12 9 5 1 2 359 355 349 339 321 298 221 110 93 48 336 32 60 74 106 111 183 166 141 102 50 122 82 79 66 71 165 123 115 123 169 113 357 72 123 42 115 152 117 51 296 289
11 9 6 5 1 359 356 353 344 336 180 154 66 47 51 4 68 77 82 80 123 193 178 100 121 108 111 123 107 111 156 183 181 145 109 147 120 191 168 204 187 148 194 102 117 165 258
14 9 2 1 1 360 356 357 349 87 136 89 90 40 345 352 76 46 77 124 147 129 55 111 116 120 135 146 120 143 162 176 175 156 146 148 124 195 175 118 200 210 202 170 184 215 203
14 9 3 0 356 358 358 358 355 209 179 128 79 9 353 17 90 74 63 71 78 110 105 117 107 91 138 152 135 157 169 40 150 146 159 180 192 188 323 359 354 233 204 177 111 118 214
8 10 6 4 359 357 358 3 10 153 177 79 94 31 13 51 52 116 125 120 107 38 87 52 107 103 115 104 48 175 166 102 171 185 113 125 179 233 251 157 128 217 210 203 192 209 226
5 5 4 5 6 3 359 6 20 106 142 69 31 89 122 43 42 89 60 149 148 164 137 136 109 224 172 154 159 190 168 157 107 157 119 163 239 227 261 262 247 250 246 215 214 221 236
352 6 6 4 5 7 2 5 19 84 84 77 84 128 76 92 30 58 36 170 172 191 166 197 192 185 190 191 193 190 175 192 193 175 176 187 237 224 283 265 226 268 250 233 233 237 247
350 0 19 11 9 8 7 5 10 24 81 89 65 51 96 349 89 62 345 179 197 66 235 347 221 168 211 236 207 205 189 150 179 172 182 175 180 7 279 315 318 286 248 205 202 207 219
268 353 23 21 17 15 11 12 14 20 46 101 128 114 67 75 137 181 157 161 335 152 231 8 124 250 355 51 80 79 78 103 169 174 150 157 151 193 289 337 267 301 181 203 209 239 216
217 228 6 23 29 24 19 16 21 28 41 79 93 83 102 96 241 280 245 243 354 339 252 252 170 172 34 36 323 315 334 309 63 43 218 170 155 219 258 275 295 233 188 161 186 310 223
205 212 224 1 23 28 28 20 22 25 49 81 56 16 94 109 237 199 168 192 244 253 325 185 95 104 76 80 35 272 248 230 220 183 32 122 125 190 170 247 263 274 190 158 146 175 52
207 214 211 255 357 24 27 26 23 29 38 86 58 40 76 38 228 166 213 205 152 155 197 254 161 139 61 145 212 228 264 208 248 204 166 148 190 211 224 275 282 254 190 155 336 312 330
216 221 225 220 187 101 42 30 30 29 28 72 82 30 56 300 262 203 192 175 159 187 196 166 124 160 121 186 200 222 224 242 266 190 184 181 164 188 190 219 278 183 102 210 331 312 308
219 219 218 210 194 161 130 65 52 39 16 62 69 32 58 185 266 291 278 276 142 207 175 189 191 164 185 153 209 187 244 236 219 259 183 226 199 190 196 218 223 160 264 208 306 304 309